Wind_Speed
69 70 69 70 71 71 70 67 64 63 63 63 62 62 61 61 61 61 62 62 62 63 63 62 61 60 59 59 59 58 58 57 57 58 58 58 58 58 58 57 57 57 57 57 56 56 56 56 56 55 54 54 55 56 57 59 60 60 60 62 64 66 66 67 68 70 71 72 72 73 74 75 76 78 79 80 80 80 79 77 73 69 66 64 64
69 71 73 73 74 74 73 72 69 67 66 65 65 65 65 65 65 67 67 66 65 64 64 63 62 61 60 60 60 60 60 59 59 59 59 59 59 59 58 58 57 57 57 57 57 57 58 58 58 57 57 58 59 60 60 61 62 62 63 65 68 69 70 70 71 71 72 72 73 74 75 76 77 78 78 77 76 74 72 70 67 65 64 64 64
67 69 71 74 75 76 75 73 72 70 68 68 68 67 67 67 69 70 70 70 69 66 64 64 63 62 62 62 62 62 62 61 60 60 60 61 61 60 60 60 59 58 58 59 59 59 60 60 61 61 61 62 62 63 63 64 65 66 67 68 69 70 71 71 72 71 71 72 73 74 75 77 76 74 72 70 69 68 66 64 63 64 64 65 64
65 67 68 70 73 75 75 74 73 72 72 71 71 70 70 70 71 72 72 72 71 69 66 65 64 64 63 63 64 64 64 63 62 61 61 62 63 63 62 62 61 61 61 61 61 62 62 62 63 63 64 64 65 65 65 66 67 68 68 69 69 70 70 71 71 71 71 71 72 73 75 75 72 68 65 64 64 64 63 62 62 62 63 63 64
62 65 67 68 70 73 75 75 74 74 74 74 74 73 73 72 72 71 71 72 72 71 69 67 66 67 66 66 66 66 66 65 64 63 63 63 64 64 64 64 64 64 64 64 63 63 63 63 64 64 65 66 66 66 67 68 68 69 69 69 69 69 70 71 71 71 70 70 70 71 71 69 65 63 62 62 61 61 62 62 62 62 62 62 63
61 63 65 65 66 67 69 70 70 70 71 71 72 72 71 71 70 69 69 71 71 71 70 68 68 68 69 69 69 69 68 67 66 65 65 65 65 66 66 66 66 66 66 66 65 64 64 64 65 65 66 67 67 67 68 69 69 69 69 69 70 70 71 71 70 69 68 68 68 67 65 62 61 60 60 59 58 59 60 61 62 62 62 62 61
68 68 68 68 68 68 68 68 68 67 67 66 66 66 67 69 69 69 69 70 71 71 71 71 71 71 71 71 71 71 70 70 70 68 67 67 67 67 67 67 68 68 67 67 66 65 66 66 66 66 67 67 67 68 69 69 69 69 70 70 71 71 70 69 69 68 67 67 66 63 61 59 58 57 57 57 57 58 60 60 60 60 60 58 57
78 78 78 78 78 79 79 78 76 74 71 68 65 64 64 66 68 69 70 70 72 73 73 73 74 75 74 72 71 72 73 72 72 71 70 69 68 67 67 68 69 70 68 67 67 66 66 67 67 67 67 67 68 69 69 69 69 69 70 71 71 70 69 69 69 68 67 66 63 60 58 57 57 57 57 57 58 59 60 59 57 56 55 54 54
85 86 85 84 82 82 83 83 84 83 81 78 73 69 66 65 65 66 67 69 72 74 75 76 77 78 77 75 74 74 74 74 73 72 72 71 70 69 69 69 71 71 69 67 66 66 66 67 67 67 67 68 68 68 68 69 69 70 71 71 71 70 70 70 69 68 66 63 60 58 57 57 57 57 57 58 58 58 57 55 53 53 53 55 57
83 84 84 82 79 77 77 79 81 82 82 81 80 78 75 72 70 67 65 66 67 70 72 74 74 74 73 71 69 69 71 72 73 73 73 73 72 71 71 71 72 71 69 68 67 66 66 68 68 68 68 67 67 67 68 69 69 70 71 71 71 70 70 70 68 66 63 60 58 58 57 57 58 58 58 58 57 55 53 53 54 56 58 60 61
79 78 78 77 75 73 73 75 77 77 77 78 80 80 80 79 77 73 70 68 67 67 68 68 68 67 67 67 67 69 71 72 72 73 73 73 72 72 72 72 72 71 70 68 68 67 66 67 69 69 68 67 67 68 69 69 69 71 71 71 71 71 70 68 66 63 61 59 59 58 57 57 58 57 56 55 54 54 55 56 58 60 62 64 64
75 75 75 75 74 72 72 73 75 76 76 77 77 77 78 78 79 78 76 74 74 74 73 72 72 73 74 73 72 73 75 75 75 75 74 73 73 73 73 73 73 73 72 69 68 67 67 69 70 70 70 69 69 69 68 69 70 71 71 71 71 70 69 66 63 61 60 60 59 58 58 57 56 55 55 55 55 56 58 59 61 63 65 67 68
72 73 74 75 74 73 72 72 74 75 76 76 75 74 74 75 77 78 78 77 78 79 78 77 77 78 79 76 73 73 76 76 76 77 77 75 75 75 74 73 73 74 73 71 69 68 68 70 72 72 70 69 69 69 69 69 70 71 71 71 71 69 67 64 62 61 61 60 58 58 58 56 54 54 56 57 58 59 60 62 64 66 68 71 72
73 73 75 75 74 72 72 72 72 73 73 73 73 72 72 73 74 76 77 78 79 79 79 79 78 78 78 76 75 75 76 76 77 79 80 80 79 78 77 75 75 75 74 72 70 69 69 71 72 71 70 69 69 69 69 69 70 70 70 71 70 68 64 62 62 61 60 59 58 58 58 56 55 56 57 59 60 62 63 66 68 71 73 75 76
77 75 75 76 73 70 69 70 71 73 73 73 73 73 73 73 74 75 76 78 79 80 80 81 81 81 80 78 77 77 77 77 79 81 84 84 84 83 81 78 77 77 75 73 70 70 70 71 71 70 70 70 70 69 69 70 70 70 70 70 68 65 63 62 62 61 60 59 60 59 59 58 58 58 60 62 64 66 68 70 73 75 77 79 79
80 77 75 75 72 69 68 69 71 72 74 75 76 76 77 77 77 78 79 79 80 82 83 84 84 84 83 81 80 79 78 78 80 84 87 88 87 85 82 79 78 77 75 72 71 71 71 70 71 71 72 71 70 70 70 70 70 70 70 68 65 63 63 63 62 61 61 61 62 62 62 62 62 62 63 66 68 70 72 73 75 78 80 81 81
82 79 75 74 72 70 71 73 74 75 76 78 78 78 77 77 78 78 78 78 79 80 82 84 84 84 84 83 82 83 81 80 81 85 87 89 88 86 82 79 79 77 74 72 72 71 71 70 70 72 73 72 71 71 72 70 69 69 68 66 64 63 63 62 61 62 63 63 64 64 65 65 65 66 67 70 72 74 75 76 78 80 81 82 82
84 81 77 76 76 74 74 75 76 77 78 79 78 76 74 73 72 72 72 73 75 78 80 82 83 83 83 82 83 85 85 82 79 80 84 87 88 86 85 83 80 77 76 74 73 71 70 70 71 73 74 73 73 72 70 68 68 69 68 66 65 63 63 62 63 64 65 66 67 67 67 68 68 70 72 74 76 77 78 79 80 80 81 82 83
82 81 79 78 79 77 76 75 76 77 77 77 76 74 71 69 67 66 67 70 74 78 80 81 82 82 82 81 81 83 84 79 74 73 78 84 86 85 84 83 80 78 77 75 72 70 69 70 72 74 75 75 73 71 68 68 69 69 68 67 66 64 63 64 65 67 68 69 70 70 71 72 73 74 76 77 78 79 80 81 80 80 80 81 82
76 77 77 77 76 76 75 74 75 75 75 75 74 72 69 67 66 66 67 69 74 77 79 79 79 80 80 79 78 77 75 70 66 66 70 75 79 81 81 80 78 77 75 73 70 69 69 71 74 76 76 75 73 69 68 68 69 69 69 68 67 66 66 66 68 69 70 71 72 73 73 75 76 78 79 78 79 80 80 79 79 79 80 81 82
71 73 73 73 74 75 75 75 74 74 73 74 73 72 70 68 67 67 68 70 72 74 75 74 74 74 75 75 74 72 69 65 65 66 66 67 68 71 76 78 77 75 74 73 70 68 70 73 76 78 78 75 72 69 69 68 68 70 70 70 70 69 68 68 70 72 72 73 74 75 76 77 79 79 78 78 78 78 78 77 78 79 81 82 83
76 76 76 76 77 78 79 78 77 75 73 73 73 72 70 69 68 67 68 69 70 71 72 72 73 72 72 70 70 69 67 64 63 64 65 65 64 65 69 72 73 72 73 73 70 70 73 77 79 79 77 74 71 70 70 69 69 71 72 73 73 72 71 71 72 74 74 75 76 77 78 79 79 78 78 78 77 76 75 76 78 80 81 83 85
86 85 83 82 82 84 84 84 82 79 75 73 73 72 70 70 69 69 69 69 69 70 71 72 73 74 73 70 67 64 62 62 63 65 67 68 67 67 68 70 71 70 71 71 70 72 77 80 79 75 71 69 69 70 71 72 72 73 75 76 75 73 72 73 74 75 76 77 78 79 79 79 78 78 79 77 75 74 74 77 78 80 81 82 84
98 96 91 87 85 87 88 88 87 85 82 78 75 73 72 71 70 70 70 70 70 71 73 73 74 74 74 72 69 64 61 62 64 66 69 69 69 69 69 70 70 69 69 70 72 76 79 77 73 69 67 67 69 71 74 75 76 76 77 76 74 73 74 76 77 78 78 79 79 78 77 77 77 77 76 74 73 73 75 76 78 79 80 81 83
106 104 100 94 89 88 90 90 90 90 88 84 79 77 76 74 70 70 70 70 70 72 75 76 76 74 73 72 70 66 64 63 63 65 67 68 68 68 67 66 67 67 68 71 74 76 74 69 67 67 68 70 73 75 77 79 80 80 77 74 72 74 76 77 79 80 79 79 78 76 75 75 75 74 73 72 72 74 75 76 77 79 81 81 82
112 108 104 99 95 94 95 95 94 93 91 88 86 83 81 78 75 72 71 71 71 73 76 77 77 75 73 72 71 68 66 65 64 65 66 66 68 69 68 66 66 67 70 74 75 73 69 67 68 70 71 74 78 80 81 83 83 80 76 73 73 75 76 77 79 80 79 78 76 73 72 72 72 72 72 72 72 73 75 76 77 79 81 81 81
116 114 110 105 100 99 101 102 100 97 94 91 89 87 85 82 80 77 74 73 74 75 77 78 78 77 74 73 73 70 67 65 65 65 66 68 71 72 71 68 67 70 74 76 75 72 69 68 69 69 72 77 81 83 84 84 82 78 75 75 75 75 76 78 79 79 77 74 72 70 70 70 70 71 71 72 73 74 75 77 78 79 81 82 81
112 113 113 111 106 104 104 105 105 103 100 97 95 93 90 88 87 84 80 78 78 79 79 80 81 80 78 76 75 73 69 67 65 66 69 73 76 77 76 73 72 74 75 73 72 72 72 69 67 67 70 76 80 82 81 80 78 75 74 74 74 74 76 77 77 75 72 70 68 67 67 67 68 70 71 72 74 75 77 79 80 80 81 81 81
106 108 109 110 110 108 107 107 107 107 105 104 102 100 97 96 95 94 90 85 83 84 83 82 81 81 80 79 76 74 71 68 66 68 71 75 78 80 79 77 77 76 74 70 70 72 71 67 64 65 69 73 77 78 76 73 71 70 70 70 71 72 73 73 71 69 68 66 65 64 65 66 68 70 71 73 75 78 79 81 81 81 80 80 79
103 104 105 106 108 110 111 112 112 111 109 107 106 105 103 100 101 102 98 92 89 89 87 85 83 82 81 79 75 73 71 69 68 69 72 73 76 77 77 78 79 77 73 71 71 71 70 66 65 67 68 70 72 72 69 66 65 63 63 63 65 66 67 66 66 66 65 64 64 64 65 66 68 70 72 74 76 78 80 81 81 80 78 78 78
100 101 101 102 104 107 110 113 116 117 116 114 113 112 110 108 106 106 102 95 91 90 88 86 85 83 82 79 76 74 72 69 68 69 70 71 72 73 73 75 76 75 73 72 72 71 70 68 68 69 70 69 69 68 65 62 60 59 60 61 61 62 63 63 64 65 65 65 65 65 66 67 69 71 72 74 76 77 78 80 79 77 76 76 76
98 98 99 99 101 103 105 109 112 115 118 119 118 118 116 113 110 105 100 94 91 90 88 87 86 85 82 80 77 76 75 73 71 71 72 71 71 71 71 71 72 72 73 72 71 69 67 66 67 68 69 68 67 65 62 60 60 60 60 61 61 61 61 62 63 64 65 65 65 66 68 69 70 71 72 74 75 75 76 76 75 74 73 73 73
94 95 95 96 98 99 101 103 105 108 111 113 114 114 112 110 105 101 97 95 93 91 87 85 84 85 83 80 77 75 74 73 72 72 72 73 74 75 74 72 70 69 68 68 67 66 65 65 65 65 65 64 63 62 61 62 62 61 60 61 61 60 60 60 62 63 65 66 67 68 70 70 71 72 73 74 74 74 73 72 71 71 71 71 71
88 89 90 91 93 94 95 97 99 101 103 105 107 108 106 104 101 99 97 97 96 93 88 85 84 84 83 81 79 76 73 71 71 71 72 74 75 77 78 76 74 71 68 67 66 66 65 65 64 63 62 61 62 62 63 63 63 62 61 60 60 60 60 61 62 64 65 67 69 70 71 71 71 72 72 72 72 71 69 69 69 69 69 69 69
82 83 84 85 87 88 89 91 93 95 97 99 101 103 103 102 100 100 100 100 99 96 91 86 84 84 84 82 81 81 79 75 72 71 73 74 76 77 78 78 77 75 73 71 69 68 67 66 65 63 63 63 64 64 65 65 64 63 62 61 61 62 62 62 63 64 66 68 70 71 71 71 71 71 71 70 69 68 66 66 66 67 67 68 69
75 76 77 79 81 82 83 84 86 88 90 91 93 96 99 100 100 101 101 102 100 98 94 90 86 85 85 83 81 81 82 80 77 75 75 76 78 79 78 77 76 76 75 72 70 69 68 67 67 66 67 67 67 67 67 67 66 65 64 64 63 63 63 63 65 66 68 69 70 71 71 71 70 69 68 66 65 65 64 64 64 64 66 67 68
64 66 68 70 73 75 76 77 79 80 82 84 85 88 92 95 98 101 102 102 100 97 95 93 90 86 85 85 83 82 81 81 80 80 80 80 80 80 79 78 76 75 74 72 70 70 71 71 70 70 71 70 70 69 69 68 68 67 66 65 64 63 64 65 67 68 69 69 70 69 69 69 68 66 64 63 62 62 62 62 63 63 64 67 69
52 54 57 60 63 67 68 70 71 73 75 76 78 80 83 87 93 98 101 103 102 99 97 96 95 91 87 86 86 85 85 84 82 81 82 82 83 82 82 82 81 79 76 74 74 75 75 75 75 75 74 73 72 72 71 70 70 68 67 66 65 65 67 68 69 69 69 68 68 67 67 66 64 62 61 60 59 59 60 61 63 63 63 65 69
45 46 48 50 53 56 59 61 63 65 68 69 71 73 76 78 83 90 96 102 106 106 104 103 102 100 96 93 90 88 87 85 83 82 82 84 84 84 84 85 86 85 83 81 80 81 80 79 79 78 77 76 75 74 73 72 71 70 68 67 66 67 67 68 68 67 67 66 65 65 64 62 60 58 57 57 58 58 59 61 62 63 64 66 68
41 41 42 44 46 47 49 52 54 57 60 62 64 67 69 71 74 78 84 91 99 105 107 108 108 108 106 103 100 97 94 91 90 88 88 88 88 87 87 86 87 88 88 87 86 85 84 83 82 81 79 78 76 75 75 74 73 71 69 67 67 66 67 67 66 65 65 64 63 62 59 57 55 55 56 56 57 58 59 61 62 64 66 68 69
36 36 37 38 39 40 42 43 45 48 51 54 57 60 62 64 67 69 72 77 83 90 96 100 103 104 104 104 103 102 100 98 97 96 95 94 92 91 90 90 90 90 90 90 89 88 86 85 83 81 79 77 76 76 75 74 72 70 68 66 65 65 65 65 65 64 63 62 60 57 55 53 53 54 54 55 57 58 59 60 62 64 67 68 69
30 31 31 32 33 34 35 36 37 40 42 45 48 52 55 57 60 62 64 67 70 75 80 85 89 93 95 95 96 96 97 97 96 95 95 94 94 93 93 94 93 92 91 90 89 86 84 82 80 78 76 75 74 73 72 70 68 67 65 64 64 63 63 63 63 62 60 58 55 53 52 51 52 53 54 55 57 58 59 61 62 65 67 68 69
26 26 26 27 28 29 29 30 32 33 35 38 40 44 47 49 52 54 56 59 61 64 67 70 74 78 81 83 85 87 88 89 89 88 88 89 90 91 93 94 94 92 90 88 85 82 79 78 76 75 73 70 68 66 65 63 62 61 61 61 61 61 61 61 60 58 56 53 51 50 50 50 51 52 54 56 57 58 59 62 64 66 68 69 70
22 23 23 24 24 24 25 26 27 28 30 31 33 36 38 41 43 45 48 51 53 55 56 58 60 63 66 70 73 76 78 79 79 80 80 82 83 86 88 89 90 89 86 83 80 76 73 71 70 68 66 65 63 62 60 59 58 57 57 58 58 57 57 57 55 53 51 49 48 48 48 50 51 53 54 56 57 58 60 63 65 67 68 69 71
19 19 20 20 20 20 20 21 21 22 23 25 26 28 30 33 35 37 40 42 44 46 48 49 50 51 53 56 60 63 65 67 69 70 72 75 77 80 83 84 84 82 80 77 74 70 67 64 62 61 61 61 60 59 58 57 56 56 55 55 55 54 53 51 50 48 47 46 46 47 48 50 52 54 55 56 57 59 61 64 66 68 69 70 71
16 16 17 17 16 16 16 15 16 16 17 18 19 20 22 25 27 29 32 34 36 38 39 41 42 43 45 46 48 50 52 54 56 58 61 64 68 71 73 74 74 73 72 70 67 65 62 59 57 57 57 57 57 56 55 55 54 54 53 52 51 49 48 47 46 45 44 45 45 47 49 51 53 54 55 56 58 60 62 65 67 68 70 71 72
14 14 14 14 13 14 14 13 11 10 10 11 13 14 16 19 21 23 25 27 29 31 33 35 36 38 38 39 40 41 42 43 44 47 50 53 55 57 59 60 61 62 61 61 60 58 56 54 53 53 53 53 52 52 52 51 51 50 48 47 46 45 44 44 43 43 43 44 46 48 50 51 53 54 56 58 59 61 63 65 67 69 70 72 73
14 13 13 12 12 12 12 12 11 10 8 6 5 7 10 13 15 18 20 22 25 27 29 30 31 32 33 33 34 35 35 37 38 41 42 43 44 44 45 47 48 49 50 51 51 50 49 49 49 48 48 47 47 48 48 47 46 45 44 43 43 42 42 42 42 42 43 45 46 48 50 52 53 55 57 59 61 62 64 66 68 69 71 72 74
14 13 13 12 11 11 11 11 11 10 9 8 7 4 3 3 6 9 13 16 19 21 23 25 26 26 27 28 29 30 31 32 34 34 34 33 33 33 35 36 38 39 40 41 42 42 43 43 43 43 43 44 44 45 44 43 42 41 41 40 40 40 40 40 41 42 44 45 47 49 51 52 54 56 58 60 62 63 65 67 69 70 72 73 75
17 14 12 12 11 10 9 9 9 8 8 8 7 6 5 4 1 2 5 8 11 13 16 18 19 21 22 24 25 26 27 27 27 26 24 24 24 26 29 31 32 33 34 35 36 36 37 37 38 39 41 42 42 41 40 39 38 38 37 37 37 38 39 40 42 43 44 46 48 50 52 53 55 57 59 61 63 64 66 68 70 71 72 75 76
21 18 15 13 12 11 10 9 8 8 7 7 6 6 6 5 3 2 1 3 5 7 9 12 14 16 17 19 20 21 21 21 20 19 20 21 24 26 28 29 30 30 31 31 31 31 33 35 36 38 39 39 38 37 36 35 34 34 35 36 37 38 39 41 42 44 45 47 49 51 53 54 56 57 59 61 63 65 67 69 70 72 74 76 78
Wind_Direction
261 262 262 263 264 264 264 265 265 266 267 268 269 270 271 272 271 270 269 270 270 270 270 269 268 267 266 266 267 268 270 271 272 272 273 273 272 270 268 267 267 267 268 268 268 269 270 271 271 271 270 270 270 270 271 271 272 273 275 277 278 279 279 279 279 280 280 281 283 285 286 288 289 290 292 293 293 292 292 291 290 290 290 289 289
263 263 263 263 264 264 264 265 265 265 266 268 269 271 272 272 272 272 272 271 271 270 271 270 270 269 268 268 268 269 270 271 272 273 273 273 272 271 270 269 268 268 268 269 269 270 271 272 272 271 270 270 270 271 272 272 273 275 276 276 277 278 279 279 279 279 281 283 285 286 287 288 289 290 291 292 292 291 290 289 289 288 288 288 288
264 265 265 265 266 266 265 265 265 265 266 267 269 270 271 271 272 272 273 273 272 271 270 271 271 270 270 270 269 270 270 271 271 272 272 272 271 271 270 270 269 268 268 269 270 270 271 271 271 271 270 270 270 271 271 272 274 275 275 275 276 277 277 278 278 279 282 284 286 287 288 288 290 292 293 292 291 289 288 287 287 287 288 288 288
262 263 263 264 265 266 267 267 266 267 267 268 268 268 269 270 271 272 272 272 272 272 271 271 271 271 270 270 269 270 270 270 270 269 270 270 270 270 270 270 270 270 269 269 269 269 269 269 269 269 268 268 269 270 271 272 273 274 275 275 276 277 278 279 280 281 283 285 287 288 288 289 291 294 293 291 288 287 287 287 287 288 288 288 288
260 260 260 260 261 263 265 267 268 269 270 270 270 269 269 270 271 272 272 271 271 270 270 271 271 271 271 270 269 269 269 269 269 268 268 268 269 269 269 269 270 270 270 269 268 267 267 267 266 267 267 268 269 270 271 272 273 274 275 275 277 278 280 281 282 283 285 286 287 288 289 289 291 292 290 288 287 288 288 289 289 288 288 288 288
261 261 261 260 259 260 262 264 265 267 268 269 270 271 270 270 271 271 271 271 270 270 269 269 269 269 270 269 269 268 268 269 268 267 266 266 267 268 268 269 269 269 269 268 267 266 266 265 265 265 266 268 269 270 271 272 273 274 275 277 279 280 281 282 283 284 285 286 287 287 288 289 289 289 287 287 287 288 288 289 288 288 287 287 287
265 265 265 264 264 264 265 264 264 264 265 266 267 268 268 268 268 268 268 269 270 269 269 268 268 268 268 268 268 268 268 268 268 267 266 266 266 266 267 267 268 268 267 266 265 264 264 263 263 264 265 267 268 269 271 272 273 275 277 278 280 281 282 283 284 285 285 286 286 286 286 287 287 286 286 286 287 287 287 286 286 285 286 287 288
266 267 268 267 268 268 268 268 267 266 266 266 266 265 264 264 264 264 265 266 267 268 267 267 267 268 268 269 270 269 268 268 268 267 266 266 266 266 266 267 268 268 266 263 262 261 261 261 262 262 264 266 267 269 270 272 274 276 277 279 280 281 281 283 284 284 284 285 285 285 285 284 284 284 284 285 285 285 285 285 285 285 286 288 289
266 267 268 269 269 268 268 268 267 267 267 267 267 265 264 263 263 263 263 263 263 264 265 265 265 267 268 270 270 270 270 270 269 267 267 267 267 267 268 268 268 268 266 263 260 259 260 260 261 262 263 264 266 268 270 272 274 276 277 278 279 280 281 283 284 283 283 284 285 284 283 282 282 282 282 283 284 284 284 285 286 287 288 289 292
265 266 268 269 268 267 266 265 265 265 265 265 265 265 264 263 263 263 263 263 263 263 264 265 265 267 267 268 268 270 272 273 272 269 268 267 268 268 268 268 268 268 266 263 260 259 259 259 260 261 262 264 266 268 270 272 274 276 277 277 278 280 282 283 282 281 282 284 284 282 281 280 279 280 280 281 282 283 283 285 286 288 289 291 293
265 266 267 268 267 266 264 263 263 262 262 262 263 264 264 264 264 262 261 260 261 262 264 264 265 265 265 267 270 273 274 275 274 272 269 268 267 267 268 268 268 268 267 265 261 259 259 260 261 262 263 265 267 269 272 273 275 276 276 277 279 281 282 280 279 280 282 283 282 280 279 278 277 278 278 279 280 281 283 285 287 289 291 293 294
265 265 266 267 267 266 264 262 261 260 260 260 261 262 264 264 263 262 261 260 260 261 263 263 263 264 266 269 272 273 272 272 273 272 270 268 267 266 266 266 267 267 267 265 262 260 261 261 262 264 265 267 268 270 272 274 274 275 276 278 280 280 279 278 279 280 281 282 281 278 277 276 275 276 277 278 280 283 285 287 289 292 293 295 296
264 265 265 265 265 264 263 261 259 259 258 259 260 261 261 262 262 262 262 262 262 263 264 263 262 264 266 269 270 270 269 269 269 269 268 267 266 265 264 264 264 264 264 262 260 259 260 261 262 264 265 267 269 271 272 273 273 275 276 278 278 277 277 278 278 279 280 280 279 277 275 274 273 275 279 281 284 286 288 291 293 294 295 296 298
264 265 265 263 263 262 261 260 259 258 258 258 259 259 260 260 261 262 262 263 263 264 264 263 263 264 266 267 268 268 268 267 266 265 265 266 265 264 263 263 262 262 261 260 258 258 258 260 262 264 266 268 269 270 271 272 273 274 276 276 276 276 277 277 277 279 280 280 278 275 272 272 274 278 282 285 287 289 292 293 295 295 296 298 300
264 266 265 262 260 259 259 259 260 260 259 259 259 260 260 260 261 262 263 263 263 264 264 264 264 265 265 266 267 267 268 268 267 265 264 264 263 262 262 261 260 259 259 258 257 258 259 260 262 264 266 267 268 269 270 271 272 273 274 274 275 276 276 276 277 279 280 279 276 273 271 273 277 281 284 287 289 291 293 294 295 296 297 299 301
264 265 264 260 257 257 258 260 261 261 262 263 262 260 260 260 261 261 261 262 263 263 264 264 264 264 265 265 265 267 268 268 268 267 266 264 262 261 261 260 258 258 258 257 258 258 259 260 261 263 264 265 266 267 268 270 271 272 273 273 274 275 275 276 278 279 279 277 275 272 273 276 279 282 285 288 290 292 293 295 296 297 298 300 301
264 265 263 257 255 258 261 262 262 262 262 263 262 260 259 259 260 260 261 261 262 262 263 263 264 264 264 263 264 265 266 267 268 268 267 265 264 263 262 260 258 257 257 257 258 258 259 259 260 261 262 263 264 266 267 269 270 271 272 272 272 273 275 277 279 279 278 276 274 273 275 278 281 284 287 290 292 293 294 295 296 297 298 299 301
263 263 261 256 255 258 261 260 260 260 260 261 261 260 260 259 260 261 262 263 263 263 263 263 263 263 263 262 262 263 264 266 268 269 268 266 264 263 262 260 258 257 257 258 258 259 259 259 258 259 261 262 263 265 267 269 270 270 269 269 270 273 276 279 279 278 276 274 274 275 277 280 283 286 289 291 293 293 294 295 295 297 298 300 302
262 262 261 258 258 260 259 257 255 256 257 259 260 259 259 260 261 263 265 267 266 265 264 264 264 264 263 263 261 262 264 267 269 270 269 267 264 262 261 259 258 257 257 258 259 260 259 258 257 259 260 262 264 266 268 268 268 267 266 267 270 273 277 279 279 276 274 274 275 277 279 282 285 287 290 292 293 293 294 295 296 298 300 302 304
261 261 260 259 259 259 257 254 253 253 254 256 257 257 258 259 261 264 268 270 268 266 265 265 265 264 264 263 261 262 264 265 266 269 269 267 264 262 259 257 256 257 258 259 260 259 258 257 258 259 260 262 265 266 267 266 265 264 265 268 270 273 276 278 277 275 274 275 276 278 281 283 286 288 290 292 293 294 295 296 298 300 302 304 306
258 258 259 259 260 259 257 254 253 253 254 254 254 255 256 257 259 263 268 268 266 264 263 262 262 263 263 262 261 260 260 261 263 266 268 268 266 264 261 260 259 260 261 261 261 259 257 257 258 258 260 262 264 265 264 264 263 264 266 268 269 271 274 276 276 275 275 276 277 279 282 285 287 290 291 292 293 295 296 299 301 303 305 306 308
259 260 261 263 264 263 261 259 256 256 256 255 254 254 256 258 260 263 266 266 264 262 260 260 261 262 264 263 261 259 259 261 264 266 267 267 267 266 265 264 264 265 265 265 263 259 257 256 256 257 259 261 263 264 264 265 265 265 266 267 268 269 272 273 274 275 276 277 278 280 283 286 288 290 291 292 294 296 299 301 303 305 306 308 309
263 264 266 267 268 266 265 263 260 258 258 257 256 256 257 259 261 262 264 265 264 261 260 261 262 263 265 264 262 261 262 265 267 268 268 268 267 266 265 264 264 266 267 265 261 256 253 254 256 257 259 261 264 266 267 267 266 266 266 266 266 268 270 273 275 276 277 277 279 281 284 286 288 290 291 293 295 298 301 302 304 305 306 307 308
266 267 268 269 268 264 263 263 261 260 260 260 259 258 258 259 259 260 261 263 263 262 261 261 262 264 265 265 263 262 263 265 267 268 269 268 268 266 264 264 265 266 266 261 256 252 252 253 256 258 261 263 265 266 266 266 266 265 264 264 266 269 272 274 275 276 276 277 280 282 284 286 288 289 291 294 297 299 301 302 303 303 303 305 306
269 269 268 266 264 260 258 259 260 259 258 258 258 258 258 258 258 259 260 261 262 262 261 260 261 262 265 265 263 262 262 262 264 265 266 267 266 264 263 264 265 266 264 259 253 250 251 253 256 260 262 263 263 264 264 264 264 264 263 264 268 272 274 275 275 275 276 278 280 282 284 286 288 289 292 295 298 300 301 302 302 301 301 303 305
267 267 267 265 262 259 258 260 261 260 257 256 256 256 257 257 259 261 262 262 261 261 261 261 260 260 262 264 264 263 263 263 263 264 265 265 265 263 262 262 263 263 262 259 254 251 251 254 259 260 260 260 261 262 262 262 263 264 263 265 269 272 273 275 275 276 277 278 280 283 284 286 288 290 294 297 299 299 300 300 300 300 300 301 303
263 264 264 264 262 260 258 259 260 260 258 256 255 255 256 257 259 263 265 264 263 262 262 262 263 262 262 263 263 263 263 263 264 265 266 266 266 265 262 261 262 261 259 257 255 252 253 255 258 257 256 256 258 259 260 262 263 263 263 265 269 272 274 275 276 276 277 279 281 283 285 287 290 293 296 297 297 297 298 299 299 299 299 300 301
262 261 261 261 261 260 259 258 258 258 258 257 257 257 257 258 259 262 265 265 263 263 263 264 265 264 263 263 263 262 263 264 264 265 266 265 263 261 261 260 259 255 251 249 248 248 250 253 254 252 252 253 256 257 259 261 262 262 263 266 270 272 274 275 276 277 278 280 283 285 287 289 291 293 294 295 294 294 295 297 298 298 298 299 300
261 260 260 259 258 258 257 256 256 256 256 256 257 258 259 260 261 262 265 264 262 261 262 263 263 262 262 262 262 261 261 262 262 263 264 263 258 255 254 254 253 249 245 243 242 242 244 246 246 246 247 250 253 256 258 259 261 262 265 267 270 271 273 274 276 278 281 283 286 287 289 290 290 291 291 291 291 292 293 295 297 297 298 299 300
260 259 259 258 257 256 255 254 255 255 255 256 257 257 259 260 262 264 265 264 260 258 259 259 258 258 258 258 258 258 258 259 261 262 262 258 254 252 251 250 248 246 243 241 242 242 241 241 242 243 245 248 253 256 258 261 263 265 266 268 270 272 274 276 279 282 285 287 289 289 290 290 289 289 289 290 290 291 292 294 296 297 298 299 301
262 260 259 258 257 256 255 254 254 255 256 257 258 258 258 259 260 262 263 261 257 255 254 253 252 253 254 253 252 252 254 256 259 260 258 253 250 249 250 249 248 245 243 241 241 241 241 242 242 244 246 249 254 258 260 262 264 265 266 269 272 275 278 281 284 287 289 290 290 290 290 290 290 290 290 289 290 290 291 293 295 296 298 300 301
264 262 260 259 258 257 256 255 255 255 255 256 257 258 258 258 258 258 258 255 252 250 249 248 247 247 249 250 250 250 251 253 255 257 257 256 253 251 248 246 246 245 244 242 241 239 240 241 243 245 249 253 257 261 263 264 266 268 270 274 277 280 283 286 288 289 290 290 290 290 290 291 290 290 290 289 289 290 291 293 295 296 298 300 301
266 265 263 261 260 258 257 257 256 255 255 255 256 256 256 256 255 254 252 249 247 245 244 243 243 244 246 249 250 250 251 252 254 256 258 259 259 258 253 248 245 244 243 242 240 239 241 245 247 250 255 258 261 264 267 269 271 273 275 277 280 282 285 287 288 289 289 289 289 289 289 290 289 289 289 289 289 290 292 294 295 296 298 299 300
269 267 266 264 262 260 259 258 257 256 255 255 255 254 254 253 252 251 250 246 243 242 241 240 241 243 245 247 249 249 248 250 253 256 258 259 260 260 259 255 251 248 245 244 244 245 248 250 252 255 258 261 263 266 269 272 274 276 278 279 281 283 284 286 287 287 287 287 286 286 287 288 288 288 288 289 289 291 292 294 295 296 297 298 299
270 269 268 266 265 263 261 259 258 257 256 255 254 254 253 251 249 249 248 245 242 241 240 239 239 241 243 246 248 249 248 249 251 253 255 257 258 257 257 256 254 252 250 249 250 251 253 254 255 257 261 263 266 269 272 274 276 279 280 280 281 282 283 284 285 284 284 284 283 284 285 286 287 287 288 289 290 291 292 293 295 296 297 298 300
271 270 269 268 266 265 263 261 260 258 257 256 254 253 252 251 248 247 246 244 242 241 240 239 238 240 242 244 246 247 249 250 252 252 253 254 254 254 255 255 254 253 252 252 253 254 255 256 258 261 265 267 270 272 274 276 278 280 281 281 281 281 281 281 281 281 282 282 282 282 283 284 286 287 287 289 290 291 292 293 295 296 297 299 300
274 273 271 269 268 266 265 263 262 260 259 257 255 253 252 250 248 247 245 243 242 241 241 240 239 240 241 242 242 243 245 247 250 252 253 254 254 254 255 256 256 255 254 253 254 255 257 258 261 264 267 270 273 275 277 279 280 281 282 281 280 279 278 277 278 279 280 280 280 281 282 283 285 286 287 288 289 290 292 293 294 296 297 299 301
280 278 275 272 269 268 266 264 263 262 260 258 256 254 252 250 248 247 245 244 242 242 243 243 242 241 242 242 242 241 242 244 246 248 252 255 256 257 257 256 256 256 255 254 255 257 259 261 264 267 270 273 275 277 279 280 281 281 281 279 277 276 275 275 276 277 278 279 279 280 282 283 284 285 286 287 288 290 291 292 294 295 297 299 301
284 282 279 276 273 270 267 265 263 262 260 259 257 254 253 251 249 247 246 245 244 244 246 246 245 244 244 245 244 243 243 243 245 248 250 253 255 257 257 257 257 257 257 257 258 260 262 264 266 269 272 275 277 279 280 281 281 281 280 278 276 274 274 274 275 276 277 278 279 280 281 282 282 284 285 287 288 290 291 292 294 296 298 299 301
286 284 282 280 277 274 270 267 264 262 260 259 257 255 253 251 250 248 246 246 246 246 247 247 247 247 247 248 248 247 246 246 247 249 251 252 253 255 257 257 258 259 260 260 261 262 264 266 268 271 274 276 278 280 281 281 281 280 279 277 275 273 272 272 274 275 276 277 278 279 279 280 281 283 285 286 288 289 291 292 294 297 298 300 302
288 288 287 285 282 278 275 271 267 264 261 259 257 256 254 252 250 249 248 246 246 246 246 246 247 248 249 250 250 250 250 250 251 252 253 253 254 255 256 257 257 259 261 262 263 264 265 267 270 273 275 276 278 279 280 281 280 279 276 274 272 271 270 271 273 274 274 275 276 277 278 279 281 283 285 286 288 289 291 293 295 297 299 301 303
292 293 293 291 287 283 278 274 270 267 263 260 258 256 254 252 251 249 248 247 247 246 247 247 247 248 249 250 251 251 252 252 252 253 253 253 254 255 255 256 257 258 260 262 264 266 267 269 271 273 274 276 277 278 278 277 276 274 272 271 269 269 269 270 271 271 272 273 274 275 277 279 281 283 285 286 287 289 291 294 296 297 299 302 304
294 297 298 297 293 288 282 276 272 268 265 262 259 257 255 253 251 249 248 248 247 247 247 247 248 248 249 250 251 251 252 252 253 253 253 253 253 254 255 255 256 258 260 262 264 267 268 270 271 273 274 275 275 274 273 272 270 269 267 267 267 267 268 268 268 269 270 272 273 275 278 280 282 283 284 286 288 290 293 295 296 298 300 302 304
296 299 301 302 302 296 288 280 275 270 266 263 260 258 256 254 252 250 249 248 247 248 248 248 248 248 249 249 250 251 251 252 252 253 253 253 253 254 255 255 256 258 261 263 264 266 267 268 269 270 271 271 271 270 269 267 265 264 263 264 264 265 265 266 267 268 269 271 273 276 279 280 281 283 284 286 289 292 294 296 297 299 301 302 304
299 302 305 308 311 308 299 288 280 274 270 266 262 259 256 253 251 249 247 247 247 247 247 247 248 248 248 248 248 249 249 250 250 250 251 252 252 253 254 255 257 259 261 262 263 264 264 263 263 262 263 264 264 264 263 262 261 261 261 261 262 263 264 265 266 267 269 272 275 277 278 279 281 283 285 288 290 293 294 296 297 299 301 302 304
304 304 306 313 320 322 317 305 291 281 274 268 264 259 254 250 248 246 245 244 245 245 245 245 245 245 244 245 245 245 245 246 246 247 248 249 250 251 253 255 256 258 259 260 260 260 259 258 256 255 256 256 256 256 256 256 257 258 258 259 261 262 263 264 265 267 270 273 275 276 277 279 281 284 287 289 291 293 294 296 298 300 302 303 304
307 306 307 312 317 325 332 334 326 309 289 274 264 257 251 247 244 243 242 241 241 241 242 242 241 241 241 240 240 240 240 241 241 242 243 245 246 248 250 251 253 254 254 255 255 255 254 253 252 252 251 251 251 252 253 253 254 255 256 258 259 260 261 263 265 268 270 272 273 275 277 280 283 286 288 290 291 293 295 297 299 301 302 304 305
305 305 309 314 315 318 327 340 349 352 348 332 298 267 253 247 242 239 238 238 237 238 238 238 238 238 237 236 235 235 235 236 237 238 240 241 243 243 244 245 245 246 247 247 248 248 248 248 248 247 247 248 248 249 250 251 252 253 254 256 257 259 261 263 265 268 270 272 273 276 279 281 284 287 289 290 292 294 296 298 300 302 303 305 307
326 314 309 309 311 313 317 325 336 345 352 357 0 356 325 265 241 234 232 231 232 233 234 233 233 233 232 231 231 232 232 233 236 238 239 239 239 240 241 240 240 240 240 242 243 244 244 243 243 243 243 245 246 247 248 248 249 250 252 253 256 258 261 263 266 268 271 273 275 278 281 283 286 288 290 291 294 295 297 299 301 303 305 307 309
2 351 336 325 319 315 314 319 325 331 337 344 351 356 359 0 341 238 223 221 223 224 224 224 225 225 224 226 228 229 229 230 231 232 233 234 237 241 242 240 238 238 238 240 241 241 239 238 239 240 242 243 243 243 244 245 246 248 251 253 256 259 262 265 267 270 272 275 277 280 282 285 287 289 292 294 296 297 299 301 303 305 307 308 310
12 7 1 354 346 338 332 329 329 332 338 345 349 348 346 347 348 333 267 224 218 217 216 214 214 215 217 219 219 218 217 218 219 224 230 237 242 245 244 241 239 239 238 237 236 235 235 236 238 239 239 239 239 240 241 243 246 249 252 255 258 261 264 267 270 272 274 277 279 282 284 287 289 292 294 296 298 299 301 303 304 306 308 310 311
Height
5645 5644 5642 5641 5641 5642 5642 5642 5642 5642 5642 5641 5642 5642 5642 5641 5640 5640 5641 5642 5643 5643 5644 5644 5645 5645 5646 5647 5647 5647 5647 5647 5647 5646 5646 5647 5646 5646 5646 5646 5646 5646 5646 5647 5647 5647 5648 5648 5648 5648 5649 5649 5648 5649 5649 5650 5650 5649 5649 5649 5649 5649 5650 5650 5650 5647 5643 5642 5643 5641 5640 5639 5637 5633 5631 5630 5628 5626 5623 5620 5619 5618 5617 5615 5614
5637 5637 5636 5636 5635 5635 5634 5634 5634 5634 5634 5633 5634 5634 5633 5633 5631 5630 5631 5633 5634 5635 5635 5635 5635 5636 5637 5638 5639 5639 5639 5639 5639 5638 5639 5639 5638 5637 5637 5637 5637 5638 5638 5638 5638 5638 5639 5640 5640 5640 5640 5640 5640 5640 5641 5641 5641 5640 5640 5640 5640 5640 5641 5641 5642 5640 5636 5633 5632 5632 5632 5630 5628 5625 5625 5624 5622 5619 5616 5614 5613 5612 5611 5609 5608
5628 5629 5630 5630 5629 5629 5628 5628 5627 5626 5626 5626 5626 5625 5624 5623 5621 5621 5621 5622 5623 5625 5625 5625 5625 5626 5627 5629 5629 5629 5630 5630 5630 5630 5630 5630 5629 5629 5629 5628 5629 5629 5629 5629 5629 5629 5630 5631 5631 5631 5632 5632 5632 5632 5632 5632 5631 5631 5631 5631 5631 5631 5632 5632 5632 5632 5630 5626 5623 5623 5623 5621 5619 5617 5616 5616 5614 5612 5610 5608 5607 5606 5604 5602 5601
5619 5619 5620 5621 5621 5620 5620 5620 5619 5618 5618 5618 5617 5616 5615 5613 5612 5612 5612 5612 5613 5613 5614 5614 5615 5616 5618 5619 5619 5619 5620 5620 5621 5622 5622 5621 5620 5620 5620 5620 5620 5620 5620 5620 5620 5621 5622 5623 5623 5623 5623 5623 5623 5623 5623 5622 5622 5622 5622 5622 5622 5622 5623 5623 5623 5624 5623 5620 5615 5614 5614 5612 5610 5607 5605 5605 5604 5603 5602 5601 5600 5599 5597 5596 5594
5610 5609 5609 5610 5610 5610 5610 5609 5609 5610 5609 5608 5608 5607 5605 5605 5604 5604 5604 5604 5604 5603 5604 5605 5605 5606 5607 5608 5608 5609 5609 5610 5611 5612 5612 5612 5611 5611 5611 5611 5611 5611 5611 5611 5612 5612 5613 5614 5613 5614 5614 5614 5614 5614 5613 5613 5613 5613 5613 5613 5613 5613 5613 5613 5614 5614 5614 5612 5608 5605 5604 5603 5601 5597 5595 5594 5594 5593 5593 5592 5592 5591 5590 5588 5586
5601 5601 5601 5601 5601 5601 5600 5599 5599 5600 5599 5599 5599 5598 5597 5597 5597 5597 5596 5595 5594 5595 5595 5597 5597 5597 5597 5597 5598 5599 5599 5600 5601 5602 5602 5602 5602 5601 5601 5601 5601 5601 5602 5602 5603 5603 5604 5604 5604 5604 5604 5605 5605 5604 5604 5604 5604 5604 5604 5604 5604 5604 5603 5603 5603 5604 5604 5602 5600 5597 5595 5593 5591 5589 5585 5584 5584 5584 5584 5584 5583 5581 5580 5579 5578
5590 5590 5591 5592 5592 5592 5590 5589 5589 5590 5590 5590 5589 5589 5589 5589 5589 5589 5588 5587 5587 5587 5587 5588 5588 5589 5588 5588 5588 5588 5588 5589 5590 5591 5592 5592 5592 5592 5591 5591 5591 5592 5593 5593 5593 5594 5594 5594 5594 5594 5595 5595 5595 5595 5595 5595 5595 5594 5594 5594 5594 5593 5592 5592 5592 5593 5593 5592 5591 5589 5587 5584 5582 5579 5576 5574 5574 5574 5574 5575 5575 5572 5571 5571 5570
5578 5578 5578 5579 5580 5580 5580 5579 5579 5579 5579 5579 5579 5579 5579 5579 5579 5579 5579 5579 5579 5579 5578 5578 5578 5578 5578 5579 5579 5578 5578 5579 5579 5580 5581 5581 5582 5582 5581 5581 5581 5582 5583 5583 5583 5584 5584 5584 5584 5584 5584 5585 5585 5585 5584 5584 5584 5584 5584 5584 5584 5583 5582 5581 5582 5582 5582 5582 5581 5579 5577 5575 5572 5570 5567 5565 5565 5565 5564 5565 5566 5565 5563 5563 5561
5566 5565 5564 5565 5566 5567 5567 5567 5567 5567 5568 5568 5569 5569 5569 5569 5569 5569 5570 5570 5570 5569 5569 5569 5568 5568 5568 5569 5569 5568 5568 5569 5569 5570 5570 5570 5571 5571 5570 5570 5570 5571 5573 5573 5573 5574 5574 5573 5574 5574 5574 5574 5574 5574 5574 5574 5574 5574 5574 5573 5573 5572 5571 5571 5571 5572 5572 5572 5571 5569 5567 5565 5561 5559 5558 5555 5555 5556 5555 5555 5555 5555 5555 5554 5552
5553 5553 5552 5551 5552 5553 5554 5554 5555 5556 5556 5557 5557 5557 5557 5557 5558 5559 5560 5561 5560 5560 5559 5559 5559 5559 5559 5560 5560 5560 5559 5559 5559 5559 5559 5559 5559 5559 5559 5559 5559 5561 5562 5563 5563 5563 5563 5563 5562 5562 5563 5563 5564 5564 5563 5564 5564 5564 5564 5564 5563 5562 5562 5561 5562 5562 5562 5562 5560 5559 5557 5555 5551 5549 5548 5546 5546 5546 5546 5545 5545 5545 5544 5544 5543
5540 5540 5539 5539 5539 5540 5541 5542 5542 5543 5544 5544 5545 5545 5545 5546 5547 5549 5550 5550 5550 5549 5549 5549 5550 5549 5549 5550 5551 5551 5551 5550 5549 5548 5548 5548 5548 5548 5548 5549 5550 5551 5552 5553 5554 5554 5553 5553 5553 5553 5553 5554 5554 5554 5554 5555 5555 5554 5554 5554 5553 5552 5552 5552 5552 5552 5552 5552 5550 5548 5547 5545 5542 5539 5537 5536 5536 5536 5535 5534 5534 5534 5532 5531 5532
5527 5527 5527 5527 5527 5528 5529 5530 5530 5531 5531 5532 5533 5533 5533 5534 5536 5537 5538 5538 5537 5537 5538 5539 5539 5538 5538 5540 5541 5542 5542 5541 5539 5538 5537 5537 5537 5538 5538 5539 5540 5540 5542 5543 5544 5544 5544 5543 5543 5543 5544 5544 5544 5544 5545 5545 5545 5545 5545 5544 5544 5543 5543 5543 5543 5543 5542 5542 5540 5538 5536 5536 5533 5530 5528 5527 5527 5526 5525 5523 5522 5521 5520 5517 5518
5514 5515 5515 5515 5515 5516 5516 5517 5518 5519 5520 5520 5521 5521 5521 5523 5524 5524 5525 5525 5525 5526 5527 5528 5528 5527 5528 5529 5530 5530 5530 5530 5529 5527 5526 5526 5526 5527 5527 5528 5529 5529 5531 5532 5533 5534 5533 5532 5532 5533 5533 5534 5534 5534 5535 5535 5535 5535 5535 5535 5534 5533 5533 5533 5533 5534 5533 5531 5530 5528 5526 5525 5524 5521 5519 5518 5517 5516 5515 5513 5511 5508 5507 5505 5504
5502 5503 5503 5503 5503 5503 5504 5505 5506 5506 5508 5509 5509 5509 5510 5510 5511 5511 5512 5513 5513 5515 5515 5515 5516 5516 5517 5518 5518 5518 5519 5520 5519 5517 5515 5515 5515 5516 5517 5518 5519 5519 5520 5521 5522 5522 5522 5522 5522 5523 5523 5523 5523 5524 5525 5525 5526 5526 5525 5525 5525 5524 5524 5524 5524 5524 5523 5521 5521 5519 5516 5515 5514 5512 5509 5507 5507 5507 5505 5504 5501 5496 5495 5494 5492
5491 5491 5491 5490 5490 5491 5492 5493 5493 5494 5495 5497 5498 5498 5498 5498 5499 5499 5500 5501 5502 5503 5503 5504 5505 5506 5506 5506 5506 5507 5508 5509 5509 5508 5506 5505 5505 5505 5506 5508 5508 5509 5509 5511 5512 5512 5512 5512 5513 5513 5513 5513 5513 5514 5514 5515 5515 5516 5516 5515 5515 5514 5514 5514 5514 5514 5513 5512 5511 5509 5507 5505 5504 5502 5500 5497 5496 5496 5495 5493 5490 5485 5483 5483 5480
5478 5479 5479 5478 5478 5479 5479 5480 5481 5482 5483 5484 5485 5486 5486 5487 5487 5487 5488 5489 5489 5490 5491 5492 5493 5493 5494 5495 5495 5496 5497 5498 5498 5497 5495 5494 5493 5493 5495 5497 5498 5499 5500 5501 5501 5501 5502 5502 5502 5502 5502 5502 5503 5503 5503 5504 5505 5506 5506 5506 5506 5506 5505 5504 5505 5504 5502 5502 5501 5500 5498 5496 5494 5492 5490 5487 5486 5485 5485 5483 5478 5474 5472 5470 5468
5465 5466 5466 5466 5466 5467 5467 5469 5470 5470 5471 5471 5472 5473 5474 5474 5475 5475 5476 5477 5477 5478 5478 5478 5479 5480 5481 5482 5483 5484 5485 5486 5485 5485 5484 5482 5482 5483 5485 5486 5487 5488 5490 5490 5491 5491 5492 5492 5492 5491 5491 5491 5491 5491 5492 5494 5496 5497 5497 5497 5497 5496 5494 5494 5495 5494 5493 5492 5491 5490 5488 5485 5483 5481 5479 5477 5475 5473 5473 5472 5468 5463 5460 5457 5454
5450 5452 5454 5454 5454 5454 5455 5457 5458 5458 5459 5459 5460 5461 5462 5463 5463 5464 5465 5466 5466 5466 5466 5466 5467 5467 5468 5470 5471 5471 5472 5473 5473 5472 5471 5471 5471 5473 5474 5475 5476 5478 5479 5480 5480 5481 5482 5483 5482 5481 5480 5480 5480 5481 5483 5485 5486 5487 5487 5487 5487 5486 5485 5485 5485 5484 5483 5483 5481 5480 5478 5475 5473 5471 5468 5466 5463 5461 5461 5459 5456 5452 5448 5444 5439
5437 5438 5440 5440 5441 5441 5442 5444 5445 5446 5447 5448 5448 5450 5450 5451 5452 5452 5453 5454 5454 5454 5454 5454 5455 5456 5456 5457 5458 5459 5460 5461 5461 5461 5459 5458 5460 5462 5463 5464 5466 5468 5468 5469 5470 5471 5472 5473 5472 5471 5470 5469 5470 5472 5475 5476 5477 5477 5477 5477 5477 5476 5475 5476 5476 5474 5473 5472 5471 5469 5467 5465 5463 5460 5458 5455 5452 5449 5448 5445 5443 5439 5435 5432 5425
5424 5424 5426 5427 5427 5428 5429 5431 5432 5434 5435 5436 5437 5438 5439 5439 5440 5441 5442 5442 5442 5443 5443 5443 5443 5444 5444 5445 5446 5447 5449 5450 5450 5449 5448 5448 5450 5452 5453 5453 5455 5457 5458 5459 5460 5462 5463 5463 5462 5461 5459 5458 5460 5463 5465 5467 5467 5466 5467 5468 5467 5467 5466 5467 5466 5465 5463 5462 5460 5459 5456 5454 5452 5450 5447 5445 5441 5438 5435 5431 5428 5425 5421 5419 5414
5409 5410 5412 5413 5414 5415 5416 5418 5419 5421 5422 5423 5425 5426 5427 5428 5428 5429 5431 5431 5431 5431 5431 5431 5432 5433 5433 5433 5434 5436 5437 5438 5438 5438 5438 5438 5440 5442 5443 5444 5446 5447 5447 5449 5450 5452 5452 5452 5450 5449 5447 5448 5451 5453 5455 5456 5457 5457 5457 5458 5457 5457 5457 5457 5455 5454 5454 5452 5450 5448 5445 5443 5441 5439 5436 5434 5430 5427 5423 5419 5415 5412 5408 5405 5402
5394 5396 5398 5400 5401 5402 5403 5405 5406 5408 5409 5410 5412 5414 5415 5415 5416 5418 5419 5420 5420 5420 5420 5420 5421 5422 5423 5423 5424 5424 5426 5427 5427 5428 5428 5428 5430 5433 5434 5435 5436 5437 5437 5439 5441 5442 5442 5440 5438 5437 5437 5438 5441 5443 5444 5446 5448 5449 5448 5447 5447 5447 5448 5447 5445 5444 5444 5442 5440 5438 5435 5433 5431 5428 5426 5424 5421 5416 5412 5408 5404 5400 5396 5392 5389
5380 5383 5385 5386 5388 5388 5389 5391 5393 5395 5396 5397 5399 5401 5402 5403 5404 5405 5407 5408 5409 5410 5410 5410 5411 5412 5412 5413 5414 5414 5415 5416 5417 5417 5417 5417 5419 5423 5425 5424 5425 5427 5428 5429 5431 5431 5430 5429 5427 5426 5427 5429 5431 5433 5434 5436 5439 5440 5438 5437 5437 5438 5438 5437 5435 5434 5433 5432 5430 5428 5425 5422 5421 5418 5415 5413 5410 5406 5401 5397 5394 5389 5385 5382 5378
5365 5369 5372 5374 5375 5375 5375 5377 5379 5381 5383 5384 5386 5388 5389 5390 5392 5393 5394 5396 5398 5399 5400 5400 5401 5401 5402 5403 5404 5404 5404 5405 5406 5406 5406 5406 5408 5412 5415 5415 5415 5417 5418 5419 5420 5420 5418 5418 5417 5416 5417 5420 5421 5422 5423 5425 5427 5428 5428 5427 5428 5428 5428 5427 5426 5425 5423 5421 5419 5417 5414 5411 5410 5408 5405 5403 5399 5395 5391 5387 5383 5379 5375 5373 5370
5350 5352 5356 5360 5363 5362 5362 5363 5365 5366 5368 5370 5372 5374 5375 5376 5379 5381 5382 5384 5386 5387 5389 5390 5391 5391 5392 5393 5393 5393 5393 5395 5395 5396 5396 5397 5398 5401 5405 5406 5406 5407 5408 5408 5409 5408 5407 5407 5406 5406 5407 5410 5410 5411 5412 5414 5415 5416 5417 5419 5419 5418 5417 5417 5416 5415 5413 5411 5409 5407 5403 5401 5399 5397 5394 5392 5388 5384 5381 5377 5373 5369 5365 5363 5361
5334 5336 5338 5342 5347 5348 5348 5349 5351 5352 5354 5355 5357 5359 5361 5363 5365 5368 5370 5371 5373 5374 5376 5378 5380 5380 5381 5382 5381 5382 5383 5384 5385 5385 5386 5387 5388 5390 5394 5397 5398 5398 5399 5399 5398 5397 5397 5396 5395 5396 5398 5399 5399 5400 5402 5403 5404 5406 5408 5408 5408 5407 5407 5407 5406 5404 5403 5401 5399 5396 5393 5390 5388 5386 5383 5381 5377 5372 5369 5367 5364 5359 5355 5353 5353
5319 5320 5322 5324 5328 5331 5333 5334 5336 5337 5339 5340 5341 5343 5347 5349 5351 5355 5358 5359 5360 5362 5364 5367 5368 5370 5370 5370 5370 5371 5373 5374 5376 5376 5376 5376 5377 5378 5381 5386 5389 5390 5390 5389 5387 5386 5386 5385 5385 5387 5388 5388 5388 5389 5390 5392 5394 5396 5397 5397 5397 5396 5396 5395 5395 5393 5392 5391 5388 5385 5382 5379 5377 5375 5372 5370 5366 5362 5358 5356 5353 5349 5344 5342 5341
5300 5303 5306 5308 5310 5313 5315 5316 5319 5321 5323 5325 5327 5329 5332 5334 5337 5342 5346 5348 5349 5351 5353 5355 5358 5359 5359 5359 5360 5361 5363 5366 5367 5366 5365 5365 5366 5367 5370 5375 5379 5380 5379 5378 5377 5376 5376 5376 5377 5379 5379 5379 5378 5379 5380 5382 5384 5385 5385 5385 5385 5385 5384 5384 5383 5382 5382 5380 5378 5375 5372 5369 5367 5364 5362 5360 5356 5351 5348 5344 5341 5339 5335 5331 5330
5281 5284 5288 5291 5293 5296 5297 5298 5301 5303 5305 5308 5310 5313 5316 5318 5321 5327 5333 5337 5339 5340 5342 5345 5347 5348 5348 5349 5351 5352 5354 5356 5355 5354 5355 5356 5357 5358 5360 5364 5367 5370 5369 5367 5366 5366 5366 5367 5368 5370 5370 5369 5368 5369 5371 5374 5375 5375 5375 5374 5373 5373 5373 5373 5373 5372 5371 5369 5367 5364 5362 5360 5358 5355 5353 5350 5346 5341 5337 5334 5330 5328 5326 5322 5319
5261 5265 5270 5272 5275 5277 5279 5280 5283 5284 5286 5289 5292 5296 5300 5303 5305 5311 5318 5324 5326 5327 5330 5333 5335 5336 5338 5339 5341 5342 5344 5345 5344 5344 5346 5347 5347 5349 5351 5354 5356 5359 5358 5358 5357 5357 5358 5359 5359 5360 5361 5360 5360 5362 5364 5365 5366 5366 5365 5364 5363 5363 5363 5363 5363 5362 5361 5359 5357 5355 5352 5350 5348 5346 5343 5341 5337 5332 5327 5324 5320 5317 5316 5313 5309
5241 5247 5251 5253 5255 5257 5258 5260 5263 5265 5267 5271 5274 5278 5283 5288 5292 5297 5304 5308 5311 5312 5315 5318 5322 5324 5327 5329 5330 5331 5333 5334 5335 5335 5336 5336 5337 5339 5341 5344 5347 5348 5348 5348 5348 5348 5349 5351 5351 5351 5352 5353 5354 5355 5356 5357 5357 5357 5356 5355 5354 5354 5354 5354 5353 5352 5350 5348 5347 5344 5343 5341 5339 5336 5333 5331 5328 5324 5318 5314 5311 5308 5305 5303 5299
5222 5227 5232 5234 5236 5238 5238 5241 5244 5246 5249 5252 5255 5258 5264 5271 5277 5284 5288 5291 5294 5297 5299 5303 5307 5311 5315 5317 5318 5319 5321 5323 5324 5325 5325 5327 5328 5329 5331 5333 5336 5338 5338 5338 5338 5339 5340 5342 5342 5343 5344 5345 5346 5347 5347 5347 5347 5347 5346 5345 5345 5345 5344 5344 5342 5341 5339 5338 5336 5334 5332 5331 5328 5326 5323 5320 5317 5315 5310 5306 5302 5298 5295 5293 5289
5205 5208 5212 5215 5217 5219 5221 5223 5225 5227 5230 5233 5236 5240 5245 5251 5259 5267 5271 5274 5277 5282 5285 5289 5293 5297 5301 5304 5306 5307 5309 5311 5313 5314 5315 5316 5318 5319 5321 5324 5326 5326 5328 5329 5330 5331 5332 5333 5334 5336 5336 5337 5337 5337 5337 5337 5336 5335 5335 5334 5334 5334 5334 5333 5331 5330 5328 5327 5325 5323 5321 5320 5317 5315 5313 5309 5306 5304 5302 5297 5294 5290 5286 5283 5281
5188 5190 5194 5196 5197 5199 5202 5205 5206 5209 5211 5214 5217 5221 5227 5233 5240 5247 5252 5257 5262 5267 5272 5276 5279 5282 5286 5290 5293 5296 5298 5300 5302 5303 5304 5304 5306 5307 5309 5313 5316 5318 5321 5322 5322 5323 5324 5325 5326 5327 5327 5327 5327 5326 5325 5325 5324 5324 5323 5323 5323 5324 5323 5322 5320 5319 5318 5316 5315 5313 5311 5309 5307 5304 5302 5299 5296 5294 5292 5289 5285 5282 5277 5274 5271
5171 5173 5176 5177 5178 5180 5183 5186 5188 5190 5194 5197 5200 5203 5208 5215 5221 5228 5234 5240 5246 5251 5257 5261 5264 5267 5270 5275 5279 5283 5286 5288 5291 5293 5293 5294 5294 5294 5296 5301 5306 5310 5313 5314 5314 5314 5314 5315 5315 5315 5315 5315 5315 5315 5314 5313 5314 5313 5312 5313 5314 5313 5313 5312 5310 5309 5308 5306 5304 5303 5301 5298 5296 5294 5292 5290 5286 5284 5283 5280 5276 5273 5268 5264 5262
5156 5157 5159 5160 5160 5161 5164 5167 5170 5173 5176 5180 5184 5187 5191 5197 5204 5210 5217 5223 5229 5235 5241 5246 5250 5252 5255 5260 5266 5270 5273 5276 5279 5280 5281 5282 5281 5281 5285 5291 5296 5299 5303 5306 5305 5303 5302 5303 5303 5303 5304 5304 5304 5304 5303 5303 5303 5303 5302 5303 5303 5303 5302 5302 5301 5299 5298 5296 5294 5293 5291 5288 5286 5284 5282 5280 5278 5275 5273 5271 5268 5264 5260 5255 5252
5144 5144 5145 5146 5145 5146 5148 5151 5154 5156 5159 5163 5167 5171 5175 5180 5186 5193 5199 5206 5213 5219 5225 5230 5234 5237 5241 5246 5252 5256 5259 5262 5264 5266 5268 5269 5270 5272 5277 5283 5285 5288 5293 5296 5294 5291 5290 5291 5292 5292 5293 5294 5293 5293 5294 5294 5294 5293 5293 5293 5293 5293 5292 5292 5291 5289 5288 5286 5284 5283 5281 5279 5277 5275 5273 5271 5270 5267 5264 5262 5259 5256 5253 5246 5241
5134 5133 5133 5132 5132 5132 5134 5137 5139 5140 5142 5146 5151 5155 5159 5164 5169 5175 5182 5189 5196 5202 5208 5214 5219 5224 5228 5233 5237 5240 5243 5247 5250 5253 5255 5258 5260 5263 5268 5272 5274 5277 5282 5284 5282 5279 5279 5280 5281 5282 5282 5283 5283 5283 5284 5284 5284 5284 5284 5283 5283 5283 5282 5282 5281 5279 5278 5276 5275 5273 5272 5270 5268 5266 5264 5263 5261 5259 5256 5253 5250 5247 5245 5240 5234
5126 5124 5122 5121 5120 5121 5122 5124 5126 5127 5128 5131 5135 5139 5143 5149 5154 5159 5165 5171 5177 5184 5190 5197 5203 5209 5214 5218 5221 5224 5228 5233 5238 5241 5243 5245 5248 5251 5256 5260 5263 5266 5270 5271 5269 5267 5268 5269 5271 5272 5272 5273 5273 5273 5274 5274 5274 5274 5274 5274 5273 5273 5273 5272 5271 5270 5268 5267 5266 5264 5263 5261 5259 5258 5256 5254 5252 5250 5248 5245 5241 5238 5235 5232 5228
5118 5116 5114 5113 5111 5112 5112 5113 5115 5116 5117 5120 5122 5125 5129 5135 5140 5144 5150 5156 5161 5167 5173 5180 5187 5193 5197 5201 5205 5209 5215 5220 5225 5228 5229 5231 5235 5239 5244 5250 5253 5255 5256 5256 5255 5255 5257 5259 5261 5262 5263 5263 5263 5264 5264 5265 5264 5264 5264 5264 5264 5264 5263 5262 5261 5261 5259 5258 5257 5256 5255 5253 5251 5250 5247 5245 5244 5242 5239 5237 5233 5229 5225 5221 5218
5111 5110 5108 5106 5104 5104 5103 5104 5105 5107 5108 5110 5112 5114 5118 5122 5127 5131 5136 5141 5147 5152 5157 5164 5171 5176 5180 5185 5189 5194 5199 5204 5209 5213 5217 5220 5225 5229 5233 5238 5241 5242 5242 5242 5242 5244 5247 5249 5250 5251 5252 5253 5254 5254 5255 5255 5255 5255 5255 5254 5254 5254 5254 5253 5252 5252 5251 5250 5249 5248 5247 5245 5243 5242 5240 5237 5235 5233 5231 5228 5225 5221 5217 5213 5208
5105 5104 5102 5100 5098 5097 5096 5096 5097 5098 5099 5101 5103 5105 5108 5112 5116 5120 5125 5129 5133 5138 5143 5149 5155 5160 5165 5170 5175 5178 5183 5188 5193 5199 5205 5209 5214 5217 5221 5224 5227 5228 5228 5230 5232 5234 5236 5238 5239 5240 5241 5242 5244 5244 5245 5245 5245 5245 5245 5245 5245 5245 5245 5244 5244 5244 5243 5242 5241 5240 5239 5237 5235 5234 5232 5229 5228 5226 5223 5220 5217 5213 5209 5205 5201
5100 5099 5097 5095 5093 5091 5090 5089 5090 5090 5091 5093 5095 5096 5099 5102 5106 5110 5115 5118 5123 5127 5132 5137 5143 5147 5152 5156 5160 5164 5169 5175 5180 5186 5192 5196 5200 5203 5206 5209 5212 5214 5217 5220 5222 5224 5225 5226 5227 5229 5231 5232 5233 5234 5234 5235 5235 5235 5235 5235 5235 5236 5236 5236 5236 5236 5235 5234 5233 5232 5231 5229 5228 5226 5224 5222 5220 5218 5215 5212 5209 5205 5201 5197 5194
5096 5094 5093 5091 5089 5087 5085 5084 5084 5084 5085 5086 5088 5090 5092 5095 5098 5102 5106 5110 5114 5119 5123 5128 5132 5137 5141 5144 5148 5152 5158 5164 5169 5174 5179 5182 5185 5188 5191 5195 5199 5203 5206 5209 5211 5213 5214 5216 5218 5219 5221 5222 5223 5224 5224 5225 5226 5226 5226 5226 5227 5227 5228 5228 5228 5228 5227 5227 5225 5224 5223 5222 5220 5218 5217 5215 5213 5211 5208 5204 5201 5198 5194 5190 5186
5092 5091 5089 5088 5086 5084 5082 5081 5080 5080 5081 5082 5083 5085 5086 5089 5092 5095 5098 5102 5106 5111 5115 5119 5124 5128 5131 5135 5138 5144 5149 5154 5159 5163 5166 5169 5172 5175 5179 5183 5188 5192 5196 5198 5200 5202 5204 5206 5208 5210 5211 5212 5213 5214 5215 5216 5217 5217 5218 5218 5219 5219 5220 5220 5220 5220 5219 5219 5218 5217 5216 5215 5213 5211 5210 5208 5205 5203 5200 5197 5193 5190 5186 5183 5179
5089 5088 5087 5086 5084 5083 5081 5079 5078 5078 5078 5079 5080 5081 5083 5085 5087 5090 5093 5096 5100 5104 5108 5112 5116 5120 5123 5127 5131 5136 5141 5146 5150 5153 5155 5158 5161 5165 5169 5174 5178 5181 5184 5186 5188 5191 5194 5196 5198 5200 5202 5203 5205 5206 5207 5208 5209 5209 5210 5210 5211 5212 5212 5212 5212 5212 5212 5212 5211 5210 5209 5208 5206 5204 5202 5200 5198 5195 5192 5189 5185 5182 5178 5174 5170
5087 5086 5085 5085 5084 5082 5081 5079 5078 5077 5077 5077 5078 5079 5080 5082 5084 5087 5089 5092 5096 5099 5103 5106 5110 5113 5117 5121 5125 5130 5134 5138 5141 5144 5146 5149 5153 5157 5161 5165 5168 5171 5173 5176 5178 5181 5184 5187 5189 5191 5192 5194 5197 5198 5199 5200 5201 5201 5202 5203 5204 5205 5205 5205 5205 5205 5205 5205 5204 5204 5203 5201 5199 5197 5194 5192 5190 5188 5185 5181 5178 5175 5171 5166 5162
5086 5085 5084 5084 5083 5082 5081 5080 5079 5078 5078 5078 5078 5079 5080 5081 5083 5085 5087 5090 5093 5095 5098 5101 5105 5109 5112 5116 5120 5124 5127 5131 5134 5136 5139 5143 5147 5150 5153 5156 5158 5161 5163 5166 5169 5172 5175 5178 5180 5182 5184 5187 5190 5191 5192 5193 5193 5194 5195 5196 5197 5198 5199 5199 5199 5199 5198 5198 5198 5197 5196 5194 5192 5189 5187 5185 5182 5180 5177 5174 5171 5167 5163 5159 5154
5085 5084 5084 5083 5082 5082 5081 5081 5080 5080 5080 5079 5080 5080 5081 5082 5083 5085 5086 5088 5090 5093 5096 5099 5102 5105 5108 5112 5115 5119 5122 5126 5129 5132 5135 5138 5142 5144 5146 5149 5151 5153 5156 5159 5161 5165 5168 5170 5173 5175 5178 5181 5183 5184 5185 5186 5187 5188 5189 5190 5191 5192 5192 5192 5192 5192 5192 5192 5191 5190 5188 5187 5185 5182 5180 5177 5175 5172 5169 5166 5163 5159 5155 5150 5146
5086 5084 5084 5083 5082 5082 5081 5081 5081 5081 5081 5081 5081 5082 5082 5083 5084 5085 5086 5088 5090 5092 5095 5097 5100 5102 5105 5109 5112 5115 5118 5122 5125 5128 5132 5135 5137 5140 5141 5143 5145 5148 5150 5153 5156 5159 5162 5165 5167 5170 5172 5174 5176 5177 5179 5180 5181 5183 5184 5185 5186 5186 5186 5186 5186 5186 5186 5186 5185 5183 5181 5180 5178 5175 5173 5170 5167 5164 5161 5158 5155 5151 5147 5142 5138
5088 5086 5085 5084 5083 5082 5082 5081 5081 5081 5082 5082 5082 5083 5084 5085 5086 5087 5088 5089 5091 5092 5094 5096 5099 5101 5104 5107 5110 5113 5116 5120 5123 5126 5129 5131 5133 5135 5137 5139 5141 5144 5146 5149 5152 5155 5158 5160 5162 5164 5167 5168 5170 5172 5174 5175 5176 5178 5179 5180 5180 5181 5181 5181 5181 5180 5180 5179 5178 5176 5174 5173 5170 5168 5165 5162 5159 5156 5154 5150 5147 5143 5139 5134 5130